Bishop, CA

3:21 AM PDT on June 25, 2017 (GMT -0700)
Bishop

Weather History for KBIH - July, 2013

Change the Weather History Date:

Saturday, July 20, 2013

  Actual Average Record
Temperature  
Mean Temperature 85 °F 78 °F  
Max Temperature 107 °F 99 °F 107 °F (2005)
Min Temperature 63 °F 57 °F 40 °F (1983)
Degree Days  
Heating Degree Days 0 0  
Month to date heating degree days 0 0  
Since 1 June heating degree days 0 19  
Since 1 July heating degree days 0 0  
Cooling Degree Days 20 13  
Month to date cooling degree days 307 243  
Year to date cooling degree days 723 525  
Since 1 June cooling degree days 637 457  
Growing Degree Days 34 (Base 50)    
Moisture  
Dew Point 36 °F    
Average Humidity 22    
Maximum Humidity 37    
Minimum Humidity 7    
Precipitation  
Precipitation 0.00 in 0.00 in 0.10 in (2009)
Month to date precipitation T 0.10  
Year to date precipitation 0.47 3.17  
Snow  
Snow 0.00 in 0.00 in - ()
Month to date snowfall 0.0 0.0  
Since 1 June snowfall 0.0 0.0  
Since 1 July snowfall 0.0 0.0  
Snow Depth 0.00 in    
Sea Level Pressure  
Sea Level Pressure 29.74 in    
Wind  
Wind Speed 7 mph (ENE)    
Max Wind Speed 28 mph    
Max Gust Speed 36 mph    
Visibility 10 miles    
Events      
T = Trace of Precipitation, MM = Missing Value Source: NWS Daily Summary

Daily Weather History Graph

Daily Weather History Graph

Search for Another Location

Airport or City:

Trip Planner

Search our weather history database for the weather conditions in past years. The results will help you decide how hot, cold, wet, or windy it might be!

Date:

Astronomy

Jul. 20, 2013 Rise Set
Actual Time 5:48 AM PDT 8:10 PM PDT
Civil Twilight 5:18 AM PDT 8:40 PM PDT
Nautical Twilight 4:41 AM PDT 9:17 PM PDT
Astronomical Twilight 4:01 AM PDT 9:57 PM PDT
Moon 6:19 PM PDT (7/20) 3:33 AM PDT (7/20)
Length of Visible Light 15h 21m
Length of Day
14h 22m
Waxing Gibbous, 94% of the Moon is Illuminated
Jul 20
Waxing Gibbous
Jul 22
Full
Jul 29
Last Quarter
Aug 6
New
Aug 14
First Quarter

Hourly Weather History & Observations

Time (PDT) Temp. Dew Point Humidity Pressure Visibility Wind Dir Wind Speed Gust Speed Precip Events Conditions
12:56 AM 77.0 °F 37.0 °F 24% 29.76 in 10.0 mi West 4.6 mph - N/A   Clear
1:56 AM 73.9 °F 37.9 °F 27% 29.76 in 10.0 mi Calm Calm - N/A   Clear
2:56 AM 70.0 °F 37.9 °F 31% 29.78 in 10.0 mi NNE 4.6 mph - N/A   Clear
3:56 AM 66.9 °F 39.0 °F 36% 29.78 in 10.0 mi NNW 3.5 mph - N/A   Clear
4:56 AM 66.9 °F 39.0 °F 36% 29.78 in 10.0 mi NW 4.6 mph - N/A   Clear
5:56 AM 64.0 °F 37.9 °F 38% 29.80 in 10.0 mi Calm Calm - N/A   Clear
6:56 AM 73.0 °F 41.0 °F 31% 29.81 in 10.0 mi Calm Calm - N/A   Clear
7:56 AM 73.9 °F 39.9 °F 29% 29.83 in 10.0 mi Calm Calm - N/A   Clear
8:56 AM 82.0 °F 43.0 °F 25% 29.82 in 10.0 mi NNE 3.5 mph - N/A   Clear
9:56 AM 90.0 °F 37.0 °F 15% 29.78 in 10.0 mi Calm Calm - N/A   Clear
10:56 AM 96.1 °F 36.0 °F 12% 29.77 in 10.0 mi North 4.6 mph - N/A   Clear
11:56 AM 98.1 °F 36.0 °F 11% 29.75 in 10.0 mi Variable 5.8 mph - N/A   Clear
12:56 PM 102.0 °F 30.9 °F 8% 29.72 in 10.0 mi Variable 4.6 mph - N/A   Clear
1:56 PM 104.0 °F 30.0 °F 8% 29.69 in 10.0 mi Variable 5.8 mph - N/A   Clear
2:56 PM 106.0 °F 30.0 °F 7% 29.67 in 10.0 mi East 4.6 mph - N/A   Clear
3:56 PM 106.0 °F 30.0 °F 7% 29.65 in 10.0 mi South 5.8 mph - N/A   Clear
4:34 PM 105.8 °F 33.8 °F 8% 29.83 in 10.0 mi East 26.5 mph 34.5 mph N/A   Clear
4:56 PM 106.0 °F 30.9 °F 7% 29.64 in 10.0 mi East 13.8 mph 31.1 mph N/A   Clear
5:56 PM 102.0 °F 33.1 °F 9% 29.65 in 10.0 mi SE 13.8 mph - N/A   Clear
6:56 PM 98.1 °F 35.1 °F 11% 29.65 in 10.0 mi SSE 16.1 mph - N/A   Clear
7:56 PM 95.0 °F 35.1 °F 12% 29.69 in 10.0 mi WNW 8.1 mph - N/A   Clear
8:56 PM 90.0 °F 37.0 °F 15% 29.70 in 10.0 mi NE 6.9 mph - N/A   Clear
9:56 PM 93.0 °F 37.9 °F 15% 29.72 in 10.0 mi ESE 15.0 mph 23.0 mph N/A   Clear
10:56 PM 91.0 °F 37.9 °F 15% 29.71 in 10.0 mi SSE 8.1 mph - N/A   Clear
11:56 PM 90.0 °F 39.0 °F 17% 29.71 in 10.0 mi SSE 13.8 mph - N/A   Clear